timestamp,wind_dir_avg,wind_spd_max_dir,wind_spd_avg,wind_spd_gust,battery_voltage,lat,long
2018-03-27 00:00:00+00:00,239.0,230.0,3.99,4.64,,47.59359,-54.27349
2018-03-27 00:10:00+00:00,240.0,240.0,4.58,5.1,,47.59359,-54.27349
2018-03-27 00:20:00+00:00,245.0,250.0,4.15,4.87,,47.59359,-54.27349
2018-03-27 00:30:00+00:00,248.0,250.0,4.79,5.18,,47.59359,-54.27349
2018-03-27 00:40:00+00:00,256.0,258.0,5.29,5.68,,47.59359,-54.27349
2018-03-27 00:50:00+00:00,258.0,261.0,5.27,5.85,,47.59359,-54.27349
2018-03-27 01:00:00+00:00,265.0,266.0,5.86,6.18,,47.59359,-54.27349
2018-03-27 01:10:00+00:00,256.0,252.0,5.65,6.25,,47.59359,-54.27349
2018-03-27 01:20:00+00:00,253.0,250.0,6.41,6.99,,47.59359,-54.27349
2018-03-27 01:30:00+00:00,254.0,256.0,6.01,6.7,,47.59359,-54.27349
2018-03-27 01:40:00+00:00,260.0,256.0,5.64,5.99,,47.59359,-54.27349
2018-03-27 01:50:00+00:00,258.0,264.0,6.34,7.66,,47.59359,-54.27349
2018-03-27 02:00:00+00:00,255.0,259.0,6.85,7.49,,47.59359,-54.27349
2018-03-27 02:10:00+00:00,260.0,258.0,5.88,6.42,,47.59359,-54.27349
2018-03-27 02:20:00+00:00,261.0,264.0,6.36,6.95,,47.59359,-54.27349
2018-03-27 02:30:00+00:00,254.0,256.0,5.44,5.98,,47.59359,-54.27349
2018-03-27 02:40:00+00:00,267.0,273.0,3.28,3.68,,47.59359,-54.27349
2018-03-27 02:50:00+00:00,279.0,274.0,3.17,3.69,,47.59359,-54.27349
2018-03-27 03:00:00+00:00,272.0,269.0,2.71,3.2,,47.59359,-54.27349
2018-03-27 03:10:00+00:00,251.0,254.0,3.69,4.18,,47.59359,-54.27349
2018-03-27 03:20:00+00:00,256.0,255.0,3.42,3.89,,47.59359,-54.27349
2018-03-27 03:30:00+00:00,275.0,273.0,2.75,3.17,,47.59359,-54.27349
2018-03-27 03:40:00+00:00,273.0,276.0,2.58,2.83,,47.59359,-54.27349
2018-03-27 03:50:00+00:00,301.0,298.0,2.01,2.25,,47.59359,-54.27349
2018-03-27 04:00:00+00:00,358.0,1.0,1.7,1.92,,47.59359,-54.27349
2018-03-27 04:10:00+00:00,6.0,6.0,2.24,2.55,,47.59359,-54.27349
2018-03-27 04:20:00+00:00,357.0,354.0,3.38,3.71,,47.59359,-54.27349
2018-03-27 04:30:00+00:00,11.0,12.0,3.56,3.93,,47.59359,-54.27349
2018-03-27 04:40:00+00:00,6.0,5.0,2.26,2.5,,47.59359,-54.27349
2018-03-27 04:50:00+00:00,1.0,2.0,2.31,2.67,,47.59359,-54.27349
2018-03-27 05:00:00+00:00,356.0,357.0,1.4,1.68,,47.59359,-54.27349
2018-03-27 05:10:00+00:00,342.0,347.0,1.36,1.75,,47.59359,-54.27349
2018-03-27 05:20:00+00:00,348.0,351.0,1.13,1.34,,47.59359,-54.27349
2018-03-27 05:30:00+00:00,333.0,339.0,1.12,1.32,,47.59359,-54.27349
2018-03-27 05:40:00+00:00,278.0,293.0,0.55,0.73,,47.59359,-54.27349
2018-03-27 05:50:00+00:00,225.0,223.0,1.35,1.6,,47.59359,-54.27349
2018-03-27 06:00:00+00:00,217.0,214.0,2.18,2.58,,47.59359,-54.27349
2018-03-27 06:10:00+00:00,234.0,232.0,0.83,1.06,,47.59359,-54.27349
2018-03-27 06:20:00+00:00,279.0,282.0,0.92,1.16,,47.59359,-54.27349
2018-03-27 06:30:00+00:00,302.0,303.0,2.44,2.79,,47.59359,-54.27349
2018-03-27 06:40:00+00:00,316.0,321.0,1.82,2.31,,47.59359,-54.27349
2018-03-27 06:50:00+00:00,345.0,343.0,1.56,1.78,,47.59359,-54.27349
2018-03-27 07:00:00+00:00,0.0,5.0,1.93,2.17,,47.59359,-54.27349
2018-03-27 07:10:00+00:00,347.0,349.0,2.07,2.32,,47.59359,-54.27349
2018-03-27 07:20:00+00:00,346.0,348.0,2.31,2.61,,47.59359,-54.27349
2018-03-27 07:30:00+00:00,340.0,346.0,1.71,2.03,,47.59359,-54.27349
2018-03-27 07:40:00+00:00,302.0,298.0,1.17,1.48,,47.59359,-54.27349
2018-03-27 07:50:00+00:00,327.0,323.0,0.81,1.03,,47.59359,-54.27349
2018-03-27 08:00:00+00:00,348.0,346.0,1.35,1.65,,47.59359,-54.27349
2018-03-27 08:10:00+00:00,340.0,336.0,1.29,1.51,,47.59359,-54.27349
2018-03-27 08:20:00+00:00,346.0,345.0,1.71,2.0,,47.59359,-54.27349
2018-03-27 08:30:00+00:00,358.0,0.0,2.52,2.79,,47.59359,-54.27349
2018-03-27 08:40:00+00:00,348.0,347.0,2.32,2.61,,47.59359,-54.27349
2018-03-27 08:50:00+00:00,348.0,351.0,2.45,2.66,,47.59359,-54.27349
2018-03-27 09:00:00+00:00,343.0,344.0,2.44,2.7,,47.59359,-54.27349
2018-03-27 09:10:00+00:00,350.0,347.0,2.23,2.56,,47.59359,-54.27349
2018-03-27 09:20:00+00:00,336.0,336.0,2.08,2.49,,47.59359,-54.27349
2018-03-27 09:30:00+00:00,347.0,346.0,2.82,3.08,,47.59359,-54.27349
2018-03-27 09:40:00+00:00,341.0,340.0,2.94,3.12,,47.59359,-54.27349
2018-03-27 09:50:00+00:00,316.0,317.0,2.29,2.69,,47.59359,-54.27349
2018-03-27 10:00:00+00:00,310.0,309.0,1.87,2.15,,47.59359,-54.27349
2018-03-27 10:10:00+00:00,306.0,306.0,1.64,1.9,,47.59359,-54.27349
2018-03-27 10:20:00+00:00,314.0,319.0,1.7,2.07,,47.59359,-54.27349
2018-03-27 10:30:00+00:00,301.0,311.0,1.84,2.34,,47.59359,-54.27349
2018-03-27 10:40:00+00:00,310.0,306.0,1.48,1.77,,47.59359,-54.27349
2018-03-27 10:50:00+00:00,341.0,350.0,1.58,1.84,,47.59359,-54.27349
2018-03-27 11:00:00+00:00,348.0,343.0,1.08,1.37,,47.59359,-54.27349
2018-03-27 11:10:00+00:00,327.0,329.0,1.16,1.49,,47.59359,-54.27349
2018-03-27 11:20:00+00:00,309.0,317.0,0.76,0.97,,47.59359,-54.27349
2018-03-27 11:30:00+00:00,337.0,344.0,0.39,0.62,,47.59359,-54.27349
2018-03-27 11:40:00+00:00,136.0,162.0,0.5,0.9,,47.59359,-54.27349
2018-03-27 11:50:00+00:00,174.0,178.0,0.8,1.02,,47.59359,-54.27349
2018-03-27 12:00:00+00:00,195.0,196.0,1.56,1.75,,47.59359,-54.27349
2018-03-27 12:10:00+00:00,221.0,212.0,0.21,0.38,,47.59359,-54.27349
2018-03-27 12:20:00+00:00,35.0,36.0,0.66,0.84,,47.59359,-54.27349
2018-03-27 12:30:00+00:00,172.0,175.0,0.67,0.83,,47.59359,-54.27349
2018-03-27 12:40:00+00:00,186.0,186.0,1.1,1.31,,47.59359,-54.27349
2018-03-27 12:50:00+00:00,142.0,186.0,0.39,0.81,,47.59359,-54.27349
2018-03-27 13:00:00+00:00,186.0,194.0,1.07,1.39,,47.59359,-54.27349
2018-03-27 13:10:00+00:00,178.0,176.0,1.31,1.48,,47.59359,-54.27349
2018-03-27 13:20:00+00:00,211.0,209.0,1.85,2.03,,47.59359,-54.27349
2018-03-27 13:30:00+00:00,239.0,232.0,0.81,1.02,,47.59359,-54.27349
2018-03-27 13:40:00+00:00,236.0,231.0,1.55,1.65,,47.59359,-54.27349
2018-03-27 13:50:00+00:00,232.0,230.0,1.74,1.96,,47.59359,-54.27349
2018-03-27 14:00:00+00:00,228.0,225.0,1.76,2.0,,47.59359,-54.27349
2018-03-27 14:10:00+00:00,261.0,263.0,1.85,2.09,,47.59359,-54.27349
2018-03-27 14:20:00+00:00,270.0,271.0,1.88,2.11,,47.59359,-54.27349
2018-03-27 14:30:00+00:00,246.0,250.0,2.11,2.35,,47.59359,-54.27349
2018-03-27 14:40:00+00:00,229.0,229.0,2.41,2.56,,47.59359,-54.27349
2018-03-27 14:50:00+00:00,227.0,228.0,3.18,3.41,,47.59359,-54.27349
2018-03-27 15:00:00+00:00,228.0,227.0,2.96,3.44,,47.59359,-54.27349
2018-03-27 15:10:00+00:00,222.0,223.0,3.98,4.63,,47.59359,-54.27349
2018-03-27 15:20:00+00:00,225.0,226.0,4.96,5.79,,47.59359,-54.27349
2018-03-27 15:30:00+00:00,224.0,220.0,5.72,6.26,,47.59359,-54.27349
2018-03-27 15:40:00+00:00,223.0,222.0,4.83,5.13,,47.59359,-54.27349
2018-03-27 15:50:00+00:00,224.0,221.0,4.34,4.69,,47.59359,-54.27349
2018-03-27 16:00:00+00:00,220.0,219.0,3.91,4.24,,47.59359,-54.27349
2018-03-27 16:10:00+00:00,237.0,237.0,4.69,5.39,,47.59359,-54.27349
2018-03-27 16:20:00+00:00,230.0,222.0,4.28,4.79,,47.59359,-54.27349
2018-03-27 16:30:00+00:00,227.0,229.0,3.68,4.05,,47.59359,-54.27349
2018-03-27 16:40:00+00:00,229.0,230.0,4.55,4.96,,47.59359,-54.27349
2018-03-27 16:50:00+00:00,228.0,229.0,4.93,5.28,,47.59359,-54.27349
2018-03-27 17:00:00+00:00,218.0,218.0,4.2,4.51,,47.59359,-54.27349
2018-03-27 17:10:00+00:00,221.0,224.0,4.36,4.88,,47.59359,-54.27349
2018-03-27 17:20:00+00:00,218.0,218.0,5.87,6.42,,47.59359,-54.27349
2018-03-27 17:30:00+00:00,225.0,227.0,5.64,6.05,,47.59359,-54.27349
2018-03-27 17:40:00+00:00,226.0,225.0,5.62,6.06,,47.59359,-54.27349
2018-03-27 17:50:00+00:00,232.0,232.0,4.68,4.98,,47.59359,-54.27349
2018-03-27 18:00:00+00:00,241.0,246.0,3.1,3.41,,47.59359,-54.27349
2018-03-27 18:10:00+00:00,226.0,231.0,3.65,4.18,,47.59359,-54.27349
2018-03-27 18:20:00+00:00,241.0,239.0,2.99,3.57,,47.59359,-54.27349
2018-03-27 18:30:00+00:00,225.0,230.0,2.89,3.11,,47.59359,-54.27349
2018-03-27 18:40:00+00:00,220.0,219.0,2.61,2.8,,47.59359,-54.27349
2018-03-27 18:50:00+00:00,223.0,223.0,3.96,4.08,,47.59359,-54.27349
2018-03-27 19:00:00+00:00,232.0,231.0,2.48,2.63,,47.59359,-54.27349
2018-03-27 19:10:00+00:00,230.0,230.0,2.1,2.22,,47.59359,-54.27349
2018-03-27 19:20:00+00:00,228.0,233.0,2.21,2.59,,47.59359,-54.27349
2018-03-27 19:30:00+00:00,227.0,226.0,2.14,2.69,,47.59359,-54.27349
2018-03-27 19:40:00+00:00,260.0,251.0,1.17,1.38,,47.59359,-54.27349
2018-03-27 19:50:00+00:00,265.0,277.0,1.94,2.26,,47.59359,-54.27349
2018-03-27 20:00:00+00:00,257.0,259.0,2.5,3.18,,47.59359,-54.27349
2018-03-27 20:10:00+00:00,260.0,264.0,2.45,2.61,,47.59359,-54.27349
2018-03-27 20:20:00+00:00,253.0,251.0,1.44,1.68,,47.59359,-54.27349
2018-03-27 20:30:00+00:00,224.0,229.0,1.95,2.22,,47.59359,-54.27349
2018-03-27 20:40:00+00:00,249.0,250.0,1.12,1.25,,47.59359,-54.27349
2018-03-27 20:50:00+00:00,200.0,208.0,1.37,1.64,,47.59359,-54.27349
2018-03-27 21:00:00+00:00,213.0,215.0,2.42,2.7,,47.59359,-54.27349
2018-03-27 21:10:00+00:00,224.0,224.0,1.43,1.51,,47.59359,-54.27349
2018-03-27 21:20:00+00:00,212.0,212.0,1.46,1.67,,47.59359,-54.27349
2018-03-27 21:30:00+00:00,205.0,204.0,0.64,0.85,,47.59359,-54.27349
2018-03-27 21:40:00+00:00,217.0,220.0,0.72,0.78,,47.59359,-54.27349
2018-03-27 21:50:00+00:00,181.0,178.0,0.53,0.56,,47.59359,-54.27349
2018-03-27 22:00:00+00:00,174.0,173.0,0.57,0.61,,47.59359,-54.27349
2018-03-27 22:10:00+00:00,216.0,220.0,0.73,0.78,,47.59359,-54.27349
2018-03-27 22:20:00+00:00,236.0,232.0,0.87,1.03,,47.59359,-54.27349
2018-03-27 22:30:00+00:00,226.0,226.0,0.98,1.06,,47.59359,-54.27349
2018-03-27 22:40:00+00:00,71.0,224.0,0.03,0.39,,47.59359,-54.27349
2018-03-27 22:50:00+00:00,23.0,30.0,0.25,0.46,,47.59359,-54.27349
2018-03-27 23:00:00+00:00,42.0,37.0,0.78,0.93,,47.59359,-54.27349
2018-03-27 23:10:00+00:00,40.0,35.0,0.96,1.03,,47.59359,-54.27349
2018-03-27 23:20:00+00:00,52.0,46.0,0.74,0.87,,47.59359,-54.27349
2018-03-27 23:30:00+00:00,343.0,334.0,0.17,0.24,,47.59359,-54.27349
2018-03-27 23:40:00+00:00,32.0,30.0,1.44,1.57,,47.59359,-54.27349
2018-03-27 23:50:00+00:00,47.0,41.0,1.98,2.24,,47.59359,-54.27349
